Location: Chevoux
(46.3801°N, 4.9476°E)
Time: 08:22:43
(UTC+00:00)

X-37B - Pass Details

Date: 21 April 2021
Orbit: 386 x 389 km, 45.0° (Epoch: 08 May)

Event Time Altitude Azimuth Distance (km) Brightness Sun altitude
Exits shadow 03:33:22 19° 258° (WSW) 1,001 2.1 -11.7°
Maximum altitude 03:35:30 69° 178° (S) 417 0.6 -11.4°
Drops below altitude 10° 03:38:40 10° 94° (E) 1,413 4.3 -10.9°
Sets 03:40:45 0° 92° (E) 2,267 5.6 -10.6°
